When you browse on this site, cookies collect data to enhance your experience and personalize the content and advertising you see.
Visit our Privacy Policy to learn more. By continuing to use the site, you agree to this use of cookies and data.
  • In Romania
  • List of Countries
  • For 7 days
  • Water Temperature
  • Satellite Maps
  • Weather Map
  • Weather Widgets
  • user-avatar
    Login

    Hourly Weather Craiova

    Today, 19 April, Friday

    Time Temperature Precipitation Wind Pressure Humidity
    00:00 +9°C° 0 mm 1 mps 761 mmHg 85%
    01:00 +9°C° 0 mm 1 mps 761 mmHg 87%
    02:00 +8°C° 0 mm 1 mps 761 mmHg 90%
    03:00 +7°C° 0 mm 2 mps 761 mmHg 90%
    04:00 +7°C° 0 mm 2 mps 760 mmHg 91%
    05:00 +6°C° 0 mm 2 mps 760 mmHg 92%
    06:00 +8°C° 0 mm 2 mps 760 mmHg 86%
    07:00 +9°C° 0 mm 3 mps 760 mmHg 81%
    08:00 +10°C° 0 mm 3 mps 760 mmHg 75%
    09:00 +12°C° 0 mm 3 mps 759 mmHg 68%
    10:00 +14°C° 0 mm 3 mps 759 mmHg 61%
    11:00 +17°C° 0 mm 4 mps 758 mmHg 54%
    12:00 +18°C° 0 mm 3 mps 758 mmHg 49%
    13:00 +19°C° 0 mm 3 mps 758 mmHg 44%
    14:00 +20°C° 0 mm 3 mps 757 mmHg 39%
    15:00 +19°C° 0 mm 3 mps 757 mmHg 41%
    16:00 +19°C° 0 mm 3 mps 757 mmHg 43%
    17:00 +18°C° 0 mm 3 mps 756 mmHg 45%
    18:00 +16°C° 0 mm 3 mps 757 mmHg 51%
    19:00 +13°C° 0 mm 3 mps 757 mmHg 57%
    20:00 +11°C° 0 mm 4 mps 758 mmHg 62%
    21:00 +11°C° 0 mm 4 mps 758 mmHg 67%
    22:00 +10°C° 0 mm 4 mps 759 mmHg 73%
    23:00 +8°C° 0 mm 4 mps 760 mmHg 78%

    Tomorrow, 20 April, Saturday

    Time Temperature Precipitation Wind Pressure Humidity
    00:00 +8°C° 0 mm 3 mps 760 mmHg 79%
    01:00 +7°C° 0 mm 3 mps 760 mmHg 80%
    02:00 +6°C° 0 mm 2 mps 761 mmHg 81%
    03:00 +6°C° 0 mm 2 mps 761 mmHg 83%
    04:00 +6°C° 0 mm 1 mps 761 mmHg 84%
    05:00 +6°C° 0 mm 1 mps 761 mmHg 85%
    06:00 +7°C° 0 mm 1 mps 761 mmHg 79%
    07:00 +8°C° 0 mm 1 mps 761 mmHg 72%
    08:00 +9°C° 0 mm 1 mps 761 mmHg 65%
    09:00 +11°C° 0 mm 1 mps 761 mmHg 59%
    10:00 +13°C° 0 mm 1 mps 761 mmHg 53%
    11:00 +13°C° 0 mm 0 mps 761 mmHg 47%
    12:00 +15°C° 0 mm 1 mps 761 mmHg 45%
    13:00 +16°C° 0 mm 1 mps 760 mmHg 42%
    14:00 +16°C° 0 mm 1 mps 760 mmHg 40%
    15:00 +16°C° 0 mm 2 mps 760 mmHg 42%
    16:00 +16°C° 0 mm 2 mps 760 mmHg 43%
    17:00 +16°C° 0 mm 3 mps 759 mmHg 44%
    18:00 +13°C° 0 mm 3 mps 760 mmHg 49%
    19:00 +12°C° 0 mm 3 mps 760 mmHg 54%
    20:00 +10°C° 0 mm 3 mps 760 mmHg 59%
    21:00 +10°C° 0 mm 2 mps 760 mmHg 60%
    22:00 +10°C° 0 mm 2 mps 760 mmHg 61%
    23:00 +9°C° 0 mm 2 mps 760 mmHg 62%

    Day after tomorrow, 21 April, Sunday

    Time Temperature Precipitation Wind Pressure Humidity
    00:00 +9°C° 0 mm 2 mps 760 mmHg 63%
    01:00 +9°C° 0 mm 1 mps 760 mmHg 64%
    02:00 +9°C° 0 mm 1 mps 760 mmHg 65%
    03:00 +9°C° 0 mm 1 mps 760 mmHg 64%
    04:00 +8°C° 0 mm 1 mps 759 mmHg 63%
    05:00 +8°C° 0 mm 1 mps 759 mmHg 62%
    06:00 +9°C° 0 mm 1 mps 759 mmHg 59%
    07:00 +10°C° 0 mm 1 mps 759 mmHg 55%
    08:00 +12°C° 0 mm 1 mps 759 mmHg 52%
    09:00 +13°C° 0 mm 2 mps 758 mmHg 48%
    10:00 +15°C° 0 mm 2 mps 758 mmHg 45%
    11:00 +16°C° 0 mm 2 mps 758 mmHg 42%
    12:00 +17°C° 0 mm 2 mps 757 mmHg 41%
    13:00 +18°C° 0 mm 2 mps 757 mmHg 40%
    14:00 +18°C° 0 mm 2 mps 756 mmHg 39%
    15:00 +18°C° 0 mm 2 mps 756 mmHg 39%
    16:00 +19°C° 0 mm 2 mps 756 mmHg 39%
    17:00 +20°C° 0 mm 1 mps 755 mmHg 38%
    18:00 +18°C° 0 mm 1 mps 755 mmHg 43%
    19:00 +15°C° 0 mm 1 mps 755 mmHg 47%
    20:00 +14°C° 0 mm 1 mps 755 mmHg 51%
    21:00 +13°C° 0 mm 1 mps 756 mmHg 54%
    22:00 +12°C° 0 mm 1 mps 756 mmHg 56%
    23:00 +12°C° 0 mm 1 mps 756 mmHg 58%

    22 April, Monday

    Time Temperature Precipitation Wind Pressure Humidity
    00:00 +11°C° 0 mm 1 mps 756 mmHg 61%
    01:00 +10°C° 0 mm 2 mps 756 mmHg 64%
    02:00 +9°C° 0 mm 2 mps 756 mmHg 66%
    03:00 +8°C° 0 mm 2 mps 756 mmHg 71%
    04:00 +8°C° 0 mm 3 mps 756 mmHg 76%
    05:00 +6°C° 0 mm 4 mps 756 mmHg 81%
    06:00 +7°C° 0 mm 4 mps 756 mmHg 78%
    07:00 +9°C° 0 mm 5 mps 756 mmHg 76%
    08:00 +10°C° 0 mm 5 mps 756 mmHg 73%
    09:00 +12°C° 0 mm 5 mps 756 mmHg 68%
    10:00 +14°C° 0 mm 5 mps 756 mmHg 63%
    11:00 +15°C° 0 mm 5 mps 756 mmHg 57%
    12:00 +16°C° 0 mm 6 mps 756 mmHg 53%
    13:00 +17°C° 0 mm 6 mps 756 mmHg 49%
    14:00 +19°C° 0 mm 6 mps 755 mmHg 45%
    15:00 +19°C° 0 mm 6 mps 755 mmHg 46%
    16:00 +19°C° 0 mm 6 mps 755 mmHg 47%
    17:00 +19°C° 0 mm 6 mps 755 mmHg 48%
    18:00 +16°C° 0 mm 6 mps 755 mmHg 53%
    19:00 +15°C° 0 mm 7 mps 756 mmHg 58%
    20:00 +12°C° 0 mm 7 mps 756 mmHg 64%
    21:00 +12°C° 0 mm 7 mps 756 mmHg 65%
    22:00 +11°C° 0 mm 8 mps 756 mmHg 67%
    23:00 +10°C° 0 mm 8 mps 757 mmHg 68%

    23 April, Tuesday

    Time Temperature Precipitation Wind Pressure Humidity
    00:00 +10°C° 0 mm 8 mps 757 mmHg 64%
    01:00 +9°C° 0 mm 8 mps 757 mmHg 60%
    02:00 +7°C° 0 mm 8 mps 757 mmHg 55%
    03:00 +6°C° 0 mm 8 mps 757 mmHg 57%
    04:00 +6°C° 0 mm 8 mps 757 mmHg 59%
    05:00 +6°C° 0 mm 8 mps 758 mmHg 60%
    06:00 +6°C° 0.1 mm 8 mps 758 mmHg 63%
    07:00 +6°C° 0.1 mm 8 mps 758 mmHg 66%
    08:00 +6°C° 0.1 mm 8 mps 758 mmHg 69%
    09:00 +6°C° 0.4 mm 8 mps 758 mmHg 69%
    10:00 +7°C° 0.4 mm 8 mps 758 mmHg 70%
    11:00 +7°C° 0.4 mm 8 mps 758 mmHg 71%
    12:00 +10°C° 0 mm 8 mps 757 mmHg 65%
    13:00 +12°C° 0 mm 9 mps 757 mmHg 60%
    14:00 +15°C° 0 mm 9 mps 756 mmHg 55%
    15:00 +15°C° 0 mm 9 mps 756 mmHg 55%
    16:00 +15°C° 0 mm 8 mps 756 mmHg 54%
    17:00 +15°C° 0 mm 8 mps 756 mmHg 54%
    18:00 +13°C° 0 mm 8 mps 756 mmHg 59%
    19:00 +12°C° 0 mm 7 mps 756 mmHg 63%
    20:00 +10°C° 0 mm 7 mps 756 mmHg 68%
    21:00 +10°C° 0 mm 7 mps 756 mmHg 68%
    22:00 +9°C° 0 mm 7 mps 757 mmHg 69%
    23:00 +8°C° 0 mm 7 mps 757 mmHg 70%

    24 April, Wednesday

    Time Temperature Precipitation Wind Pressure Humidity
    00:00 +8°C° 0 mm 7 mps 757 mmHg 72%
    01:00 +6°C° 0 mm 7 mps 757 mmHg 73%
    02:00 +6°C° 0 mm 7 mps 757 mmHg 75%
    03:00 +6°C° 0 mm 7 mps 757 mmHg 77%
    04:00 +5°C° 0 mm 6 mps 757 mmHg 78%
    05:00 +5°C° 0 mm 6 mps 758 mmHg 80%
    06:00 +7°C° 0.1 mm 6 mps 758 mmHg 80%
    07:00 +8°C° 0.1 mm 6 mps 758 mmHg 79%
    08:00 +8°C° 0.1 mm 6 mps 758 mmHg 79%
    09:00 +9°C° 0.2 mm 6 mps 758 mmHg 76%
    10:00 +10°C° 0.2 mm 6 mps 758 mmHg 74%
    11:00 +11°C° 0.2 mm 6 mps 758 mmHg 71%
    12:00 +13°C° 0 mm 6 mps 757 mmHg 68%
    13:00 +15°C° 0 mm 6 mps 757 mmHg 65%
    14:00 +16°C° 0 mm 6 mps 757 mmHg 62%
    15:00 +16°C° 0 mm 6 mps 757 mmHg 62%
    16:00 +16°C° 0 mm 6 mps 757 mmHg 62%
    17:00 +17°C° 0 mm 6 mps 756 mmHg 62%
    18:00 +15°C° 0 mm 5 mps 757 mmHg 66%
    19:00 +14°C° 0 mm 5 mps 757 mmHg 71%
    20:00 +13°C° 0 mm 5 mps 757 mmHg 75%
    21:00 +12°C° 0 mm 5 mps 758 mmHg 75%
    22:00 +12°C° 0 mm 5 mps 758 mmHg 76%
    23:00 +10°C° 0 mm 5 mps 758 mmHg 77%
    Show more